Wind_Speed
18 23 15 24 35 40 38 36 34 33 30 31 32 40 38 37 39 38 38 39 37 35 33 29 27 25 22 20 17 16 19 20 20 20 19 17 15 14 14 13 12 10 10
24 23 24 25 15 30 41 40 38 35 35 33 35 39 44 40 39 41 41 43 41 39 35 30 28 25 24 21 20 20 21 21 20 21 20 17 17 12 13 13 11 11 9
28 29 29 27 31 23 22 40 40 39 39 38 38 40 44 46 43 40 44 43 45 44 39 32 31 28 26 25 22 21 22 22 21 20 18 17 15 10 10 12 12 8 8
36 36 36 37 33 35 33 20 46 46 43 45 44 42 45 45 47 44 46 40 55 44 38 34 33 32 28 27 26 24 24 24 21 17 15 14 13 13 10 11 11 9 9
44 43 43 44 42 39 41 41 22 46 47 47 51 47 48 49 49 47 47 43 47 46 41 39 37 35 31 29 28 25 23 27 24 22 16 14 14 13 11 10 11 12 11
44 44 46 46 45 41 39 39 46 32 45 53 54 54 50 51 49 51 50 49 46 44 45 43 42 42 38 33 32 31 28 25 28 25 21 17 16 14 11 10 12 13 13
38 38 40 43 43 44 43 41 36 52 40 51 50 48 51 50 51 54 53 52 50 50 47 49 50 47 40 40 36 35 33 30 31 27 24 23 20 17 12 9 10 13 14
32 31 32 36 39 46 47 46 43 42 55 39 45 45 39 48 53 55 55 53 52 51 53 53 55 51 46 46 42 39 36 35 34 32 29 26 25 22 17 14 15 17 16
30 31 32 33 36 38 46 45 44 47 46 55 51 35 28 26 42 53 58 57 54 54 54 56 57 61 56 54 48 45 41 37 39 36 33 30 27 25 23 20 20 20 18
31 31 31 32 35 38 41 43 40 46 50 49 57 49 44 38 29 26 50 56 57 54 53 57 58 62 55 53 59 50 45 41 44 41 37 36 34 30 29 25 22 21 19
33 31 32 32 34 37 38 38 39 40 48 51 52 58 40 46 43 38 32 56 53 61 58 56 57 66 51 63 64 54 51 46 48 47 44 41 40 37 29 27 24 24 21
37 36 32 33 33 36 41 40 35 39 42 48 51 52 46 44 52 45 38 44 65 63 59 60 59 56 55 59 67 57 56 52 51 52 49 47 46 38 35 32 26 23 20
39 38 36 34 34 34 38 43 47 43 36 39 41 46 59 47 47 54 43 39 47 56 57 65 62 59 59 58 64 59 56 58 53 56 56 52 51 44 42 35 28 21 22
40 38 37 35 34 35 34 35 41 49 46 40 45 39 52 65 40 42 49 41 30 46 59 59 64 64 60 59 56 56 62 54 59 58 61 59 56 54 48 34 25 22 22
40 39 37 34 34 35 33 34 33 34 38 43 46 44 43 46 60 38 43 44 48 36 51 58 62 65 64 62 56 58 60 54 64 58 67 62 62 61 41 30 22 21 20
37 36 38 37 33 34 33 36 42 43 40 42 43 43 41 40 48 50 45 50 51 47 39 55 60 61 63 63 60 56 54 57 54 67 69 68 65 55 39 28 22 19 21
35 33 35 36 33 31 28 27 32 32 32 38 42 42 37 35 39 54 52 53 51 46 42 35 49 52 50 53 58 57 56 59 66 67 66 66 57 48 35 25 20 20 23
32 31 31 32 32 29 29 31 31 32 36 34 40 34 33 36 39 48 50 48 50 44 44 49 42 46 47 50 52 51 55 59 62 60 60 61 50 37 26 21 18 21 24
27 25 25 27 29 30 27 28 30 30 29 32 34 39 28 36 42 44 48 44 41 44 49 46 44 43 42 40 48 50 56 56 54 44 38 33 27 24 21 20 21 25 23
23 19 18 21 22 27 26 27 32 32 30 34 36 41 26 37 41 40 44 46 38 40 46 41 37 37 40 44 49 53 52 45 40 36 31 26 22 19 19 20 21 24 19
18 15 11 13 19 22 22 23 25 30 33 31 36 37 30 32 33 40 39 44 30 43 42 39 33 34 36 44 50 50 52 44 37 33 28 24 20 19 21 22 23 19 17
15 12 9 7 5 12 22 20 20 23 26 29 30 33 30 29 28 31 40 35 29 31 36 32 31 32 36 44 48 52 52 44 36 32 30 26 23 22 23 24 19 17 19
18 16 12 9 8 6 3 13 15 16 17 21 27 26 28 31 34 33 30 23 21 22 16 15 23 30 34 37 42 48 49 49 43 35 29 26 26 25 24 19 16 18 19
19 21 20 17 16 15 7 4 9 10 16 21 23 26 27 27 26 26 26 25 22 16 14 14 18 14 19 22 33 37 43 44 37 31 29 26 25 22 18 17 19 20 19
24 23 24 23 21 18 10 7 10 15 19 19 19 20 21 23 20 21 25 26 22 19 18 15 14 13 10 14 20 25 30 34 30 24 22 22 21 19 18 18 19 20 20
33 31 29 29 26 22 16 21 24 30 31 30 27 25 22 22 19 17 20 24 28 24 21 20 18 17 16 17 15 16 21 28 26 20 21 18 16 17 13 18 19 20 20
Wind_Direction
311 272 281 250 250 244 238 236 232 232 233 231 228 225 222 220 216 214 212 215 221 222 209 211 207 209 213 213 213 202 193 190 186 183 177 181 179 171 176 174 178 175 163
299 296 275 274 250 243 241 237 234 231 231 233 234 227 225 224 223 215 216 218 221 215 213 210 207 213 213 214 206 201 198 196 192 184 188 189 188 192 185 178 179 181 188
288 289 288 276 276 259 244 237 236 233 234 232 238 231 228 227 225 226 219 223 222 213 212 224 211 220 215 216 210 205 199 201 197 196 196 193 212 212 195 184 181 206 195
280 279 280 282 281 275 262 250 239 234 235 234 234 233 231 229 228 226 229 233 226 209 213 218 220 217 223 208 209 210 198 200 201 204 210 215 222 209 212 205 208 202 203
273 271 273 274 277 275 264 253 259 234 234 240 235 234 233 235 225 227 230 233 215 212 213 218 222 224 222 216 213 206 206 199 196 199 211 217 220 221 220 223 216 222 224
273 270 266 266 270 271 263 259 250 259 235 234 235 232 232 232 232 226 225 231 230 229 216 223 224 217 218 216 214 206 208 220 202 204 210 221 221 222 222 231 227 223 226
277 272 268 263 258 260 257 257 264 255 259 231 228 218 225 228 232 229 225 225 230 233 231 223 229 222 216 220 216 213 212 216 217 215 218 221 217 220 223 241 257 239 228
283 275 268 265 259 252 254 255 248 252 252 247 216 216 210 218 223 225 223 226 229 233 232 237 233 231 220 218 216 221 216 211 214 226 225 217 210 211 214 231 242 244 241
284 280 274 266 262 258 252 253 250 244 250 247 243 213 198 211 216 217 219 223 226 229 231 232 224 227 221 218 224 217 218 217 211 215 213 218 219 214 220 230 236 239 245
289 283 277 270 263 260 255 251 246 242 246 249 243 253 217 210 198 215 219 217 220 231 226 228 230 222 229 230 223 222 219 216 213 217 210 209 208 211 227 230 220 234 237
295 288 281 274 265 257 254 251 247 242 240 245 238 235 234 213 216 214 215 212 224 219 228 224 225 223 229 227 227 226 220 222 219 216 214 215 214 207 225 230 219 227 228
298 295 288 278 268 257 250 243 245 244 243 245 244 233 234 219 209 211 217 222 216 220 226 224 225 225 226 225 223 231 226 222 219 215 219 213 216 204 222 227 234 222 227
297 296 295 291 278 262 253 247 240 235 232 229 234 238 230 242 223 218 215 218 211 216 222 223 226 227 226 226 222 230 228 223 221 219 215 216 215 207 218 224 228 219 229
294 295 290 288 280 275 256 250 247 240 239 240 238 238 232 234 241 222 213 214 206 217 222 225 229 230 230 228 224 230 230 234 227 218 215 218 216 215 222 222 220 227 231
294 291 285 282 279 270 253 240 238 240 237 235 240 241 242 241 233 244 225 217 215 213 219 223 227 231 233 233 238 227 227 231 219 229 220 219 219 221 214 217 224 235 246
292 287 281 278 276 265 257 246 239 234 234 227 229 234 242 243 234 234 240 227 224 224 226 231 230 232 232 229 229 230 226 227 236 221 217 218 222 214 213 219 227 244 247
299 288 275 272 271 260 250 245 237 235 230 237 233 232 230 237 235 231 242 229 229 221 230 231 233 232 232 232 230 226 225 222 216 214 215 218 213 212 212 222 237 255 230
305 294 275 265 263 253 245 243 241 242 242 231 226 226 229 227 227 224 227 232 234 232 236 231 226 224 228 225 217 211 205 208 209 205 207 213 209 209 218 232 244 234 228
313 302 282 266 256 250 241 239 235 234 233 232 227 221 233 223 223 228 227 227 239 239 229 230 225 228 221 215 210 205 199 196 194 188 193 199 202 213 224 239 249 238 231
320 311 290 267 259 251 246 237 235 235 232 234 221 220 221 225 231 231 232 232 233 239 225 224 221 212 209 203 207 200 192 194 189 193 196 200 207 216 230 244 236 235 230
333 327 311 276 254 244 238 235 227 227 230 229 213 217 227 230 233 237 237 227 228 228 224 221 223 213 207 204 204 200 199 190 189 195 196 201 210 222 228 230 229 226 230
1 1 16 7 325 251 236 231 231 230 230 223 219 219 229 228 226 231 229 226 240 236 221 218 212 215 209 203 204 205 202 191 190 203 206 210 219 226 226 222 222 225 233
28 33 42 56 51 59 183 203 203 208 210 209 216 229 226 223 224 217 218 215 213 204 220 237 232 214 206 207 211 207 205 206 204 202 205 214 221 220 218 221 225 233 238
42 45 47 49 62 57 31 40 171 188 206 207 211 210 204 197 196 195 193 185 185 183 191 205 216 215 216 218 212 212 206 206 209 211 215 217 217 217 224 222 229 234 243
50 54 59 59 60 69 76 109 149 156 153 145 151 156 158 154 157 171 171 166 158 166 169 173 189 194 197 206 213 206 202 200 199 201 203 209 209 211 217 226 230 238 246
63 58 64 69 74 81 100 120 126 127 123 120 121 123 127 128 134 149 161 153 150 144 145 144 142 150 152 143 170 178 183 183 186 183 193 192 194 201 213 229 235 243 250
Height
1486 1485 1483 1483 1486 1489 1493 1494 1496 1499 1502 1504 1507 1511 1513 1518 1519 1523 1526 1529 1532 1534 1535 1537 1540 1542 1544 1547 1549 1550 1552 1555 1557 1558 1560 1561 1564 1563 1563 1564 1564 1565 1566
1481 1480 1479 1479 1479 1477 1482 1485 1488 1491 1494 1497 1500 1504 1507 1511 1515 1517 1521 1524 1526 1528 1531 1532 1537 1540 1541 1542 1545 1547 1550 1551 1553 1555 1557 1558 1558 1561 1562 1562 1562 1562 1563
1475 1474 1473 1473 1474 1473 1473 1473 1479 1484 1486 1489 1492 1496 1500 1504 1508 1511 1514 1517 1520 1523 1525 1527 1530 1534 1538 1539 1541 1544 1546 1548 1550 1552 1554 1556 1555 1556 1558 1560 1560 1561 1561
1468 1467 1466 1464 1468 1467 1467 1467 1468 1473 1477 1481 1484 1487 1492 1496 1500 1504 1507 1508 1510 1513 1519 1522 1525 1528 1531 1535 1538 1538 1542 1545 1548 1548 1549 1551 1552 1553 1555 1556 1557 1558 1559
1456 1456 1455 1455 1455 1456 1457 1459 1459 1460 1464 1470 1475 1478 1483 1486 1490 1495 1499 1501 1502 1508 1512 1516 1520 1523 1526 1529 1533 1535 1537 1542 1544 1546 1545 1547 1549 1549 1550 1553 1553 1554 1555
1440 1441 1442 1443 1443 1443 1446 1449 1451 1453 1454 1458 1463 1467 1472 1477 1482 1485 1489 1494 1499 1502 1506 1511 1514 1516 1520 1523 1526 1529 1532 1536 1540 1541 1542 1542 1544 1545 1546 1548 1549 1550 1551
1427 1427 1427 1428 1431 1431 1432 1437 1438 1440 1445 1448 1454 1452 1459 1466 1470 1474 1480 1484 1489 1495 1500 1502 1507 1509 1511 1516 1520 1522 1526 1526 1531 1535 1537 1538 1540 1541 1541 1543 1545 1545 1547
1415 1415 1416 1416 1418 1420 1420 1422 1429 1431 1429 1439 1437 1443 1446 1455 1458 1460 1467 1473 1478 1484 1490 1494 1497 1501 1503 1508 1512 1515 1519 1522 1525 1528 1531 1533 1535 1536 1537 1537 1541 1541 1539
1405 1404 1405 1405 1406 1408 1407 1411 1415 1419 1419 1422 1431 1431 1431 1435 1446 1451 1454 1460 1467 1473 1479 1484 1486 1489 1492 1497 1502 1507 1511 1514 1518 1520 1524 1526 1529 1531 1532 1534 1535 1535 1537
1393 1393 1393 1394 1394 1395 1395 1398 1403 1407 1410 1409 1415 1421 1419 1419 1431 1439 1444 1448 1456 1460 1467 1471 1478 1475 1480 1488 1493 1496 1501 1505 1510 1512 1516 1519 1521 1524 1524 1527 1529 1531 1532
1384 1383 1382 1381 1382 1383 1383 1386 1390 1393 1396 1399 1403 1409 1411 1410 1418 1426 1429 1435 1443 1448 1455 1463 1466 1467 1471 1478 1484 1485 1492 1496 1500 1503 1506 1509 1512 1515 1515 1518 1521 1524 1526
1371 1370 1370 1369 1369 1370 1372 1375 1379 1382 1385 1387 1392 1395 1401 1402 1401 1411 1417 1424 1428 1436 1442 1450 1456 1459 1461 1469 1471 1476 1484 1489 1492 1495 1496 1500 1503 1507 1509 1512 1514 1518 1520
1360 1359 1359 1357 1356 1357 1359 1362 1366 1369 1373 1376 1380 1382 1389 1394 1399 1401 1409 1415 1419 1424 1429 1436 1443 1449 1453 1456 1460 1463 1471 1477 1482 1485 1486 1490 1494 1498 1501 1504 1507 1511 1514
1351 1349 1349 1349 1348 1347 1348 1350 1352 1357 1362 1365 1368 1371 1377 1384 1390 1394 1398 1404 1410 1414 1419 1423 1431 1437 1443 1449 1451 1458 1462 1464 1472 1472 1477 1480 1484 1488 1491 1497 1500 1503 1507
1342 1340 1339 1339 1338 1337 1338 1341 1343 1347 1351 1356 1359 1363 1368 1372 1380 1386 1388 1393 1398 1404 1404 1410 1419 1422 1431 1439 1443 1450 1453 1455 1461 1464 1468 1471 1474 1477 1485 1491 1493 1496 1499
1333 1329 1328 1328 1328 1328 1329 1331 1333 1336 1340 1344 1350 1355 1358 1362 1369 1376 1381 1386 1389 1396 1399 1402 1408 1411 1418 1426 1434 1442 1444 1448 1449 1453 1456 1459 1465 1471 1477 1484 1487 1489 1492
1323 1318 1317 1317 1318 1318 1320 1322 1325 1327 1331 1335 1342 1347 1350 1355 1355 1366 1374 1378 1383 1390 1391 1393 1400 1404 1411 1418 1423 1428 1432 1439 1441 1445 1448 1452 1461 1466 1471 1477 1481 1484 1486
1314 1309 1307 1307 1309 1310 1312 1315 1317 1320 1323 1327 1332 1337 1342 1349 1352 1355 1364 1368 1376 1384 1388 1389 1392 1397 1402 1408 1414 1417 1425 1427 1436 1437 1441 1446 1455 1460 1467 1472 1473 1477 1480
1307 1301 1298 1297 1299 1301 1304 1307 1309 1312 1315 1320 1325 1330 1334 1342 1345 1352 1356 1359 1369 1375 1377 1380 1383 1390 1395 1403 1409 1413 1417 1423 1427 1433 1440 1448 1450 1457 1462 1466 1468 1471 1474
1303 1296 1292 1290 1291 1293 1296 1299 1302 1306 1310 1313 1318 1322 1326 1333 1337 1343 1348 1355 1361 1367 1369 1374 1374 1381 1386 1395 1403 1407 1412 1424 1425 1431 1436 1442 1447 1454 1457 1461 1464 1466 1469
1301 1293 1288 1285 1285 1286 1288 1291 1295 1300 1304 1307 1311 1316 1321 1327 1332 1336 1342 1347 1352 1358 1363 1367 1368 1377 1381 1389 1396 1402 1411 1416 1422 1427 1432 1438 1445 1450 1452 1455 1459 1462 1466
1301 1294 1287 1283 1279 1279 1282 1286 1290 1294 1298 1301 1306 1313 1318 1322 1327 1333 1337 1341 1347 1351 1357 1360 1366 1369 1377 1383 1389 1395 1404 1411 1420 1427 1431 1437 1442 1446 1449 1451 1455 1459 1462
1304 1297 1290 1284 1280 1278 1280 1284 1287 1291 1295 1300 1305 1308 1313 1316 1321 1327 1333 1338 1344 1348 1354 1359 1364 1368 1374 1377 1383 1388 1398 1406 1412 1420 1429 1434 1438 1442 1445 1447 1454 1456 1458
1309 1303 1296 1289 1284 1283 1283 1284 1287 1291 1294 1297 1301 1305 1309 1313 1318 1323 1329 1337 1344 1347 1352 1361 1365 1368 1373 1375 1381 1387 1395 1403 1414 1421 1426 1430 1435 1439 1444 1448 1450 1451 1452
1316 1309 1302 1297 1292 1290 1290 1290 1291 1293 1297 1301 1306 1309 1313 1316 1321 1327 1330 1335 1338 1349 1356 1359 1363 1368 1371 1374 1382 1387 1395 1404 1414 1420 1425 1429 1432 1435 1440 1444 1445 1446 1447
1323 1318 1311 1305 1303 1301 1300 1299 1299 1299 1301 1306 1311 1316 1320 1321 1327 1332 1335 1336 1344 1349 1350 1355 1359 1366 1373 1376 1388 1392 1397 1403 1412 1418 1423 1427 1430 1433 1436 1438 1439 1442 1442